When you browse on this site, cookies collect data to enhance your experience and personalize the content and advertising you see.
Visit our Privacy Policy to learn more. By continuing to use the site, you agree to this use of cookies and data.
  • In Latvia
  • List of Countries
  • For 7 days
  • Water Temperature
  • Weather Map
  • Weather Widgets
  • user-avatar
    Login

    Hourly Weather Townsville

    Today, 17 August, Saturday

    Time Temperature Precipitation Wind Pressure Humidity
    00:00 +17°C° 0 mm 3 mps 757 mmHg 88%
    01:00 +17°C° 0 mm 3 mps 757 mmHg 88%
    02:00 +17°C° 0 mm 3 mps 757 mmHg 89%
    03:00 +17°C° 0 mm 3 mps 757 mmHg 90%
    04:00 +16°C° 0 mm 2 mps 757 mmHg 89%
    05:00 +16°C° 0 mm 2 mps 757 mmHg 90%
    06:00 +16°C° 0 mm 2 mps 757 mmHg 90%
    07:00 +16°C° 0 mm 2 mps 758 mmHg 91%
    08:00 +19°C° 0 mm 2 mps 758 mmHg 78%
    09:00 +21°C° 0 mm 2 mps 758 mmHg 65%
    10:00 +25°C° 0 mm 2 mps 758 mmHg 51%
    11:00 +26°C° 0 mm 2 mps 757 mmHg 50%
    12:00 +26°C° 0 mm 3 mps 757 mmHg 50%
    13:00 +27°C° 0 mm 3 mps 756 mmHg 49%
    14:00 +26°C° 0 mm 3 mps 755 mmHg 52%
    15:00 +26°C° 0 mm 3 mps 755 mmHg 55%
    16:00 +25°C° 0 mm 3 mps 755 mmHg 59%
    17:00 +23°C° 0 mm 2 mps 755 mmHg 68%
    18:00 +20°C° 0 mm 2 mps 755 mmHg 78%
    19:00 +20°C° 0 mm 1 mps 756 mmHg 87%
    20:00 +19°C° 0 mm 1 mps 756 mmHg 89%
    21:00 +18°C° 0 mm 2 mps 757 mmHg 91%
    22:00 +18°C° 0 mm 2 mps 757 mmHg 92%
    23:00 +18°C° 0 mm 2 mps 757 mmHg 93%

    Tomorrow, 18 August, Sunday

    Time Temperature Precipitation Wind Pressure Humidity
    00:00 +18°C° 0 mm 2 mps 757 mmHg 93%
    01:00 +18°C° 0 mm 2 mps 757 mmHg 94%
    02:00 +17°C° 0 mm 2 mps 757 mmHg 94%
    03:00 +17°C° 0 mm 2 mps 756 mmHg 94%
    04:00 +17°C° 0 mm 2 mps 756 mmHg 94%
    05:00 +17°C° 0 mm 2 mps 757 mmHg 94%
    06:00 +17°C° 0 mm 2 mps 757 mmHg 93%
    07:00 +17°C° 0 mm 2 mps 757 mmHg 93%
    08:00 +19°C° 0 mm 2 mps 758 mmHg 78%
    09:00 +23°C° 0 mm 2 mps 758 mmHg 63%
    10:00 +26°C° 0 mm 2 mps 758 mmHg 48%
    11:00 +26°C° 0 mm 2 mps 757 mmHg 46%
    12:00 +27°C° 0 mm 3 mps 757 mmHg 45%
    13:00 +28°C° 0 mm 3 mps 756 mmHg 43%
    14:00 +27°C° 0 mm 3 mps 755 mmHg 46%
    15:00 +26°C° 0 mm 3 mps 755 mmHg 49%
    16:00 +25°C° 0 mm 3 mps 754 mmHg 52%
    17:00 +22°C° 0 mm 3 mps 755 mmHg 61%
    18:00 +20°C° 0 mm 2 mps 755 mmHg 70%
    19:00 +18°C° 0 mm 2 mps 756 mmHg 80%
    20:00 +18°C° 0 mm 2 mps 756 mmHg 82%
    21:00 +19°C° 0 mm 1 mps 756 mmHg 83%
    22:00 +18°C° 0 mm 1 mps 757 mmHg 85%
    23:00 +18°C° 0 mm 1 mps 757 mmHg 86%

    Day after tomorrow, 19 August, Monday

    Time Temperature Precipitation Wind Pressure Humidity
    00:00 +17°C° 0 mm 2 mps 756 mmHg 86%
    01:00 +17°C° 0 mm 2 mps 756 mmHg 87%
    02:00 +17°C° 0 mm 2 mps 756 mmHg 87%
    03:00 +18°C° 0 mm 1 mps 756 mmHg 87%
    04:00 +16°C° 0 mm 1 mps 755 mmHg 88%
    05:00 +18°C° 0 mm 1 mps 756 mmHg 87%
    06:00 +18°C° 0 mm 1 mps 756 mmHg 87%
    07:00 +18°C° 0 mm 1 mps 757 mmHg 87%
    08:00 +20°C° 0 mm 1 mps 757 mmHg 75%
    09:00 +23°C° 0 mm 1 mps 757 mmHg 64%
    10:00 +26°C° 0 mm 2 mps 757 mmHg 52%
    11:00 +26°C° 0 mm 2 mps 757 mmHg 49%
    12:00 +27°C° 0 mm 2 mps 756 mmHg 46%
    13:00 +28°C° 0 mm 3 mps 756 mmHg 43%
    14:00 +27°C° 0 mm 3 mps 755 mmHg 46%
    15:00 +27°C° 0 mm 3 mps 755 mmHg 48%
    16:00 +26°C° 0 mm 2 mps 755 mmHg 50%
    17:00 +24°C° 0 mm 2 mps 755 mmHg 60%
    18:00 +21°C° 0 mm 2 mps 755 mmHg 70%
    19:00 +20°C° 0 mm 1 mps 756 mmHg 80%
    20:00 +19°C° 0 mm 1 mps 756 mmHg 82%
    21:00 +19°C° 0 mm 1 mps 757 mmHg 84%
    22:00 +19°C° 0 mm 1 mps 757 mmHg 86%
    23:00 +17°C° 0 mm 2 mps 757 mmHg 86%

    20 August, Tuesday

    Time Temperature Precipitation Wind Pressure Humidity
    00:00 +17°C° 0 mm 2 mps 757 mmHg 86%
    01:00 +17°C° 0 mm 2 mps 757 mmHg 86%
    02:00 +17°C° 0 mm 2 mps 757 mmHg 86%
    03:00 +17°C° 0 mm 2 mps 756 mmHg 85%
    04:00 +16°C° 0 mm 2 mps 756 mmHg 84%
    05:00 +16°C° 0 mm 2 mps 757 mmHg 74%
    06:00 +16°C° 0 mm 3 mps 757 mmHg 63%
    07:00 +16°C° 0 mm 3 mps 758 mmHg 53%
    08:00 +18°C° 0 mm 3 mps 758 mmHg 48%
    09:00 +21°C° 0 mm 3 mps 758 mmHg 44%
    10:00 +24°C° 0 mm 3 mps 759 mmHg 40%
    11:00 +25°C° 0 mm 4 mps 758 mmHg 41%
    12:00 +26°C° 0 mm 4 mps 758 mmHg 41%
    13:00 +27°C° 0 mm 5 mps 757 mmHg 42%
    14:00 +26°C° 0 mm 5 mps 757 mmHg 45%
    15:00 +26°C° 0 mm 5 mps 756 mmHg 47%
    16:00 +25°C° 0 mm 5 mps 756 mmHg 50%
    17:00 +22°C° 0 mm 4 mps 756 mmHg 59%
    18:00 +20°C° 0 mm 4 mps 757 mmHg 68%
    19:00 +17°C° 0 mm 3 mps 757 mmHg 77%
    20:00 +17°C° 0 mm 3 mps 758 mmHg 78%
    21:00 +16°C° 0 mm 3 mps 758 mmHg 80%
    22:00 +16°C° 0 mm 2 mps 758 mmHg 82%
    23:00 +14°C° 0 mm 3 mps 758 mmHg 81%

    21 August, Wednesday

    Time Temperature Precipitation Wind Pressure Humidity
    00:00 +14°C° 0 mm 3 mps 758 mmHg 81%
    01:00 +14°C° 0 mm 3 mps 758 mmHg 80%
    02:00 +13°C° 0 mm 3 mps 758 mmHg 71%
    03:00 +13°C° 0 mm 3 mps 757 mmHg 62%
    04:00 +13°C° 0 mm 3 mps 757 mmHg 53%
    05:00 +12°C° 0 mm 3 mps 758 mmHg 49%
    06:00 +12°C° 0 mm 3 mps 758 mmHg 45%
    07:00 +11°C° 0 mm 4 mps 759 mmHg 41%
    08:00 +14°C° 0 mm 3 mps 759 mmHg 36%
    09:00 +18°C° 0 mm 3 mps 759 mmHg 31%
    10:00 +21°C° 0 mm 3 mps 759 mmHg 26%
    11:00 +22°C° 0 mm 3 mps 758 mmHg 27%
    12:00 +25°C° 0 mm 3 mps 757 mmHg 27%
    13:00 +26°C° 0 mm 3 mps 756 mmHg 28%
    14:00 +26°C° 0 mm 3 mps 756 mmHg 32%
    15:00 +25°C° 0 mm 3 mps 755 mmHg 37%
    16:00 +25°C° 0 mm 4 mps 755 mmHg 41%
    17:00 +21°C° 0 mm 3 mps 755 mmHg 53%
    18:00 +19°C° 0 mm 2 mps 756 mmHg 64%
    19:00 +18°C° 0 mm 1 mps 756 mmHg 75%
    20:00 +16°C° 0 mm 1 mps 757 mmHg 76%
    21:00 +16°C° 0 mm 1 mps 757 mmHg 77%
    22:00 +15°C° 0 mm 1 mps 757 mmHg 78%
    23:00 +15°C° 0 mm 2 mps 757 mmHg 77%

    22 August, Thursday

    Time Temperature Precipitation Wind Pressure Humidity
    00:00 +15°C° 0 mm 2 mps 757 mmHg 76%
    01:00 +14°C° 0 mm 2 mps 757 mmHg 76%
    02:00 +14°C° 0 mm 2 mps 757 mmHg 73%
    03:00 +14°C° 0 mm 2 mps 756 mmHg 70%
    04:00 +13°C° 0 mm 2 mps 756 mmHg 68%
    05:00 +13°C° 0 mm 2 mps 757 mmHg 60%
    06:00 +13°C° 0 mm 2 mps 757 mmHg 53%
    07:00 +12°C° 0 mm 3 mps 758 mmHg 46%
    08:00 +16°C° 0 mm 3 mps 758 mmHg 38%
    09:00 +19°C° 0 mm 2 mps 758 mmHg 29%
    10:00 +23°C° 0 mm 2 mps 758 mmHg 21%
    11:00 +25°C° 0 mm 2 mps 757 mmHg 21%
    12:00 +26°C° 0 mm 3 mps 756 mmHg 20%
    13:00 +27°C° 0 mm 3 mps 756 mmHg 20%
    14:00 +27°C° 0 mm 3 mps 755 mmHg 22%
    15:00 +26°C° 0 mm 3 mps 755 mmHg 24%
    16:00 +26°C° 0 mm 3 mps 754 mmHg 26%
    17:00 +23°C° 0 mm 2 mps 755 mmHg 33%
    18:00 +20°C° 0 mm 1 mps 755 mmHg 41%
    19:00 +16°C° 0 mm 1 mps 756 mmHg 48%
    20:00 +16°C° 0 mm 1 mps 756 mmHg 49%
    21:00 +15°C° 0 mm 1 mps 756 mmHg 50%
    22:00 +15°C° 0 mm 1 mps 757 mmHg 52%
    23:00 +15°C° 0 mm 1 mps 756 mmHg 52%
    Show more